Probability
0 0 0 0 0 0 0 0 0 0 0 0 0 0 0 0 0 0 0 0 0 0 0 0 0 0 0 0 0 0 0 0 0 0 0 0 0 0 0 0 0 0 0 0 0 0 0 0 0
0 0 0 0 0 0 0 0 0 0 0 0 0 0 0 0 0 0 0 0 0 0 0 0 0 0 0 0 0 0 0 0 0 0 0 0 0 0 0 0 0 0 0 0 0 0 0 0 0
0 0 0 0 0 0 0 0 0 0 0 0 0 0 0 0 0 0 0 0 0 0 0 0 0 0 0 0 0 0 0 0 0 0 0 0 0 0 0 0 0 0 0 0 0 0 0 0 0
0 0 0 0 0 0 0 0 0 0 0 0 0 0 1 1 1 0 0 0 0 0 0 0 0 0 0 0 0 0 0 0 0 0 0 0 0 0 0 0 0 0 0 0 0 0 0 0 0
0 0 0 0 0 0 0 0 0 0 0 0 0 1 2 2 1 0 0 0 1 1 1 0 0 0 0 0 0 0 0 0 0 0 0 0 0 0 0 0 0 0 0 0 0 0 0 0 0
0 0 0 0 0 0 0 0 0 0 0 0 0 1 1 2 1 1 0 1 2 2 1 0 0 0 0 0 0 0 0 0 0 0 0 0 0 0 0 0 0 0 1 1 1 0 0 0 0
0 0 0 0 0 0 0 0 0 0 0 0 0 0 0 1 2 1 1 1 3 3 1 0 0 0 0 0 0 0 0 0 0 0 0 0 0 0 0 0 0 0 1 2 1 0 0 0 0
0 0 0 0 0 0 0 0 0 0 0 0 0 0 1 2 2 3 2 3 3 3 2 1 0 0 0 0 0 0 0 0 0 0 0 0 0 0 0 0 0 0 1 1 0 0 0 0 0
0 0 0 0 0 0 0 0 0 0 0 0 0 1 2 2 2 2 3 3 3 3 2 1 0 0 0 0 0 0 0 0 0 0 0 0 0 0 0 0 0 0 0 0 0 0 0 0 0
0 0 0 0 0 0 0 0 0 0 0 0 0 0 1 1 1 1 1 2 3 3 2 1 0 0 0 0 0 0 0 0 0 0 0 0 0 0 0 0 0 0 0 0 0 0 0 0 0
0 0 0 0 0 0 0 0 0 0 0 0 0 0 0 0 0 0 0 1 2 3 2 1 0 0 0 0 0 0 0 0 0 0 0 0 0 0 0 0 0 0 0 0 0 0 0 0 0
0 0 0 0 0 0 0 0 0 0 0 0 0 0 0 0 0 0 0 0 1 1 1 1 0 0 0 0 0 0 0 0 0 0 0 0 0 0 0 0 0 0 0 0 0 0 0 0 0
0 0 0 0 0 0 0 0 0 0 0 0 0 0 0 0 0 0 0 0 0 0 0 0 0 0 0 0 0 0 0 0 0 0 0 0 0 0 0 0 0 0 0 0 0 0 0 0 0
0 0 0 0 0 0 0 0 0 0 0 0 0 0 0 0 0 0 0 0 0 0 0 0 0 0 0 0 0 0 0 0 0 0 0 0 0 0 0 0 0 0 0 0 0 0 0 0 0
0 0 0 0 0 0 0 0 0 0 0 0 0 0 0 0 0 0 0 0 0 0 0 0 0 0 0 0 0 0 0 0 0 0 0 0 0 0 0 0 0 0 0 0 0 0 0 0 0
0 0 0 0 0 0 0 0 0 0 0 0 0 0 0 0 0 0 0 0 0 0 0 0 0 0 0 0 0 0 0 0 0 0 0 0 0 0 0 0 0 0 0 0 0 0 0 0 0
0 0 0 0 0 0 0 0 0 0 0 0 0 0 0 0 0 0 0 0 0 0 0 0 0 0 0 0 0 0 0 0 0 0 0 0 0 0 0 0 0 0 0 0 0 0 0 0 0
0 0 0 0 0 0 0 0 0 0 0 0 0 0 0 0 0 0 0 0 0 1 0 0 0 0 0 0 0 0 0 0 0 0 0 0 0 0 0 0 0 0 0 0 0 0 0 0 0
0 0 0 0 0 0 0 0 0 0 0 0 0 0 0 0 0 0 0 0 0 0 0 0 0 0 0 0 0 0 0 0 0 0 0 0 0 0 0 0 0 0 0 0 0 0 0 0 0
0 0 0 0 0 0 0 0 0 0 0 0 0 0 0 0 0 0 0 0 0 0 0 0 0 0 0 0 0 0 0 0 0 0 0 0 0 0 0 0 0 0 0 0 0 0 0 0 0
0 0 0 0 0 0 0 0 0 0 0 0 0 0 0 0 0 0 0 0 0 1 0 0 0 0 0 0 0 0 0 0 0 0 0 0 0 0 0 0 0 0 0 0 0 0 0 0 0
0 0 0 0 0 0 0 0 0 0 0 0 0 0 0 0 0 0 0 0 0 0 0 0 0 0 0 0 0 0 0 0 0 0 0 0 0 0 0 0 0 0 0 0 0 0 0 0 0
0 0 0 0 0 0 0 0 0 0 0 0 0 0 0 0 0 0 0 0 0 0 0 0 0 0 0 0 0 0 0 0 0 0 0 0 0 0 0 0 0 0 0 0 0 0 0 0 0
0 0 0 0 0 0 0 0 0 0 0 0 0 0 0 0 0 0 0 0 0 0 0 0 0 0 0 0 0 0 0 0 0 0 0 0 0 0 0 0 0 0 0 0 0 0 0 0 0
0 0 0 0 0 0 0 0 0 0 0 0 0 0 0 0 0 0 0 0 0 0 0 0 0 0 0 0 0 0 0 0 0 0 0 0 0 0 0 0 0 0 0 0 0 0 0 0 0
0 0 0 0 0 0 0 0 0 0 0 0 0 0 0 0 0 0 0 0 0 0 0 0 0 0 0 0 0 0 0 0 0 0 0 0 0 0 0 0 0 0 0 0 0 0 0 0 0
0 0 0 0 0 0 0 0 0 0 0 0 0 0 0 0 0 0 0 0 0 0 0 0 0 0 0 0 0 0 0 0 0 0 0 0 0 0 0 0 0 0 0 0 0 0 0 0 0
0 0 0 0 0 0 0 0 0 0 0 0 0 0 0 0 0 0 0 0 0 0 0 0 0 0 0 0 0 0 0 0 0 0 0 0 0 0 0 0 0 0 0 0 0 0 0 0 0
0 0 0 0 0 0 0 0 0 0 0 0 0 0 0 0 0 0 0 0 0 0 0 0 0 0 0 0 0 0 0 0 0 0 0 0 0 0 0 0 0 0 0 0 0 0 0 0 0
0 0 0 0 0 0 0 0 0 0 0 0 0 0 0 0 0 0 0 0 0 0 0 0 0 0 0 0 0 0 0 0 0 0 0 0 0 0 0 0 0 0 0 0 0 0 0 0 0
Wind_Speed
11 8 5 3 3 4 4 2 2 2 4 5 6 5 7 8 6 7 3 4 5 6 6 5 6 7 8 8 9 9 9 9 9 9 9 9 10 10 10 10 10 10 10 10 10 10 10 10 10
8 6 4 3 4 5 2 2 3 4 6 5 5 5 7 8 8 6 3 4 5 7 6 5 7 8 9 9 9 9 9 9 10 10 10 9 9 9 10 10 9 9 9 9 9 10 10 10 10
8 6 4 3 3 3 1 3 6 7 7 5 4 6 6 6 6 4 3 4 6 6 6 6 8 9 10 10 9 9 9 9 10 10 10 10 9 9 10 9 9 9 9 9 9 9 9 9 9
4 3 4 4 3 1 1 3 6 6 5 4 4 7 6 6 4 4 4 5 7 7 7 7 8 10 10 10 10 9 9 9 10 10 10 10 10 11 10 10 10 10 9 9 9 9 9 9 8
3 3 4 4 3 1 2 3 4 4 4 4 3 5 7 5 6 6 4 6 7 7 7 7 9 10 10 10 10 10 10 10 10 9 10 10 10 10 10 10 10 10 10 10 9 9 9 8 8
3 3 4 5 3 2 1 2 3 4 4 3 3 5 6 5 5 4 4 5 7 7 7 7 9 9 9 10 10 10 11 11 10 10 10 10 10 10 10 10 10 10 10 10 10 10 9 8 8
3 3 4 4 3 2 1 2 2 2 4 3 2 4 6 4 4 3 4 5 6 6 6 5 5 7 8 9 9 10 11 11 10 10 9 10 10 11 11 11 10 10 9 10 10 10 9 9 8
3 2 3 3 3 2 2 2 2 3 3 3 3 3 4 4 4 4 4 5 6 5 5 5 5 4 4 5 8 9 9 9 9 9 8 7 8 9 10 9 10 9 9 9 9 9 8 8 8
3 2 2 2 1 2 3 2 3 4 5 3 4 5 5 8 6 5 4 4 5 5 4 4 4 4 3 3 5 5 6 7 6 6 6 5 3 3 5 7 9 9 9 8 8 8 7 6 5
2 1 1 3 4 2 3 2 2 1 2 2 4 6 7 7 6 5 4 4 3 4 4 3 4 3 3 3 3 2 3 3 3 3 2 2 3 3 4 5 6 7 7 6 6 6 5 4 2
2 1 1 3 5 3 2 2 2 2 1 2 3 5 5 6 5 5 4 4 3 3 3 3 3 3 3 2 2 2 1 1 2 3 3 2 3 2 2 1 2 2 3 3 3 3 3 3 3
2 3 2 2 3 2 1 1 1 1 0 2 3 6 6 5 5 4 4 4 3 3 3 3 3 3 3 2 2 2 1 1 2 2 3 3 2 2 2 1 1 1 1 2 2 1 3 3 3
2 2 3 3 3 2 1 0 0 1 1 3 3 5 5 5 4 3 3 4 3 3 3 3 3 3 2 2 1 2 1 1 2 2 2 3 2 2 2 2 1 2 1 1 2 2 3 3 3
3 2 1 1 2 1 1 1 1 2 2 4 4 4 4 4 4 3 4 4 4 3 2 2 3 2 2 2 1 1 1 1 1 1 2 3 2 2 2 2 2 2 2 2 1 2 2 2 2
3 2 1 1 2 2 0 2 4 3 3 3 4 3 3 4 4 4 4 4 4 4 3 2 3 3 2 2 2 1 1 1 1 1 2 2 2 2 2 1 2 2 2 2 2 2 2 2 2
3 2 1 2 1 2 2 4 2 5 4 4 4 4 4 4 4 4 4 4 4 4 4 3 2 2 2 2 2 1 1 1 1 1 1 1 2 2 2 1 1 1 2 2 1 1 1 2 2
2 2 2 2 1 1 3 4 2 3 4 5 5 5 5 5 5 4 4 4 4 4 4 4 3 3 2 2 1 1 1 1 1 1 1 1 2 2 1 1 1 1 1 2 2 1 1 1 2
2 2 2 2 1 2 4 6 4 5 5 6 6 5 6 6 6 5 4 4 4 4 4 5 4 3 3 2 1 1 1 1 1 1 1 1 1 2 1 1 1 1 1 2 2 2 2 1 1
1 2 3 2 0 2 5 7 7 7 7 7 7 6 7 6 5 5 5 4 4 4 4 5 5 4 3 2 2 1 1 1 1 1 2 1 2 1 1 1 1 1 1 1 1 1 2 2 2
2 2 3 1 0 2 5 9 8 8 9 8 8 7 7 6 5 6 5 5 5 5 4 4 4 4 4 3 2 1 1 1 1 1 1 1 1 1 1 1 1 1 1 1 1 1 1 1 2
2 2 2 2 3 4 4 7 7 6 7 7 7 7 7 7 7 6 6 6 5 5 5 4 4 4 4 4 2 2 1 1 1 1 1 1 1 1 1 1 1 1 1 1 1 1 1 0 1
2 1 2 2 2 2 2 5 5 5 6 8 7 6 6 5 5 6 6 5 5 5 4 4 5 4 4 5 4 3 2 2 2 1 1 1 1 1 1 1 1 1 1 1 1 1 1 1 0
0 2 3 4 3 3 2 4 6 4 6 8 7 6 5 5 5 6 6 6 5 4 4 4 5 4 4 5 4 3 2 2 2 2 2 1 1 1 1 1 1 1 1 1 1 1 1 1 0
1 1 3 2 1 4 5 4 6 4 6 5 6 6 6 5 5 4 5 5 4 4 4 4 4 4 4 5 5 4 4 3 3 2 2 1 1 1 1 1 1 1 0 1 1 1 1 1 1
1 0 1 1 2 5 3 4 8 4 2 3 4 5 5 5 5 5 5 5 5 5 5 4 5 4 4 5 5 4 4 4 4 3 3 2 1 1 1 1 1 1 0 1 1 1 1 0 0
2 1 2 2 3 2 2 6 6 1 2 2 1 2 4 4 4 5 5 5 5 5 5 5 5 4 4 5 4 4 4 3 2 3 2 2 2 2 2 1 1 1 1 1 1 1 0 1 1
1 1 0 1 1 3 5 5 4 1 1 1 2 2 4 5 5 5 5 5 5 6 6 6 5 4 4 4 4 4 4 3 3 3 2 2 1 1 2 2 2 1 1 1 1 1 0 1 1
1 0 1 2 1 4 5 4 4 3 4 3 3 3 4 4 5 5 5 6 5 5 5 5 5 5 4 4 4 4 4 3 3 3 3 2 2 2 2 2 2 2 1 1 1 1 1 1 1
2 2 2 2 2 2 4 5 2 2 2 3 3 3 3 4 5 5 5 5 6 5 5 5 5 4 4 5 4 4 4 3 3 3 3 3 2 2 2 2 2 2 2 2 2 2 1 1 1
1 3 3 3 4 3 3 8 1 2 1 1 2 3 3 3 4 5 5 5 5 5 5 5 5 5 5 5 5 4 4 4 4 3 3 3 3 3 3 3 3 2 2 2 2 2 2 2 1
Wind_Direction
303 279 261 250 235 230 226 215 127 86 76 53 44 45 57 46 41 94 93 60 69 85 87 80 60 73 76 82 82 78 75 76 75 72 71 69 67 65 64 60 57 56 56 59 61 63 61 62 62
298 282 253 236 240 229 201 154 102 60 86 81 57 55 71 72 69 86 74 59 76 86 87 84 64 68 72 79 82 79 78 76 75 71 69 67 66 64 61 58 55 55 56 57 58 60 59 58 58
280 258 250 232 239 253 141 92 98 83 82 76 73 47 56 69 77 77 64 81 83 83 82 77 67 71 73 74 79 80 78 75 73 71 67 65 63 61 59 57 55 54 55 55 57 58 56 55 53
270 232 236 247 231 293 86 93 105 112 96 70 92 88 75 47 49 73 80 87 87 84 82 82 72 73 73 72 71 73 75 74 71 68 65 63 61 58 55 54 56 55 54 55 56 56 54 52 51
237 245 229 233 233 207 54 75 96 106 119 108 100 102 92 59 63 77 78 78 81 79 81 88 76 75 73 73 71 69 68 69 70 67 67 64 60 56 54 53 53 55 56 56 55 52 49 48 47
251 244 236 221 200 189 106 57 116 108 94 88 86 104 100 90 74 72 76 82 83 82 84 90 75 73 72 71 70 67 66 64 65 68 67 65 61 57 53 51 52 55 56 58 56 54 50 45 44
263 266 259 240 197 200 60 35 76 108 103 78 28 101 114 109 86 81 78 78 81 83 85 88 92 83 73 68 67 66 65 63 61 63 65 63 60 56 51 48 50 53 53 55 56 55 52 49 45
297 277 259 250 222 168 86 33 46 50 86 53 28 99 128 134 113 99 92 85 84 81 81 84 83 85 87 81 68 65 65 63 60 57 53 58 62 60 55 48 45 48 50 52 52 52 52 48 46
291 246 265 317 319 99 106 97 48 27 88 67 47 52 98 122 122 114 103 88 84 83 77 79 79 75 78 88 79 71 67 60 60 56 47 47 62 68 62 52 45 44 45 47 48 46 45 39 37
335 244 330 7 14 75 106 95 98 89 102 113 95 81 106 125 131 127 117 111 102 94 86 81 83 75 76 81 81 70 66 63 51 47 37 27 37 52 63 58 50 44 41 40 39 35 32 28 26
19 61 65 37 25 37 96 98 115 171 174 124 133 130 135 137 142 148 146 136 126 119 102 85 88 88 82 82 84 67 64 57 45 39 21 34 39 44 61 64 51 41 41 32 27 27 27 27 27
80 49 39 46 36 22 32 137 132 247 250 81 123 139 140 152 161 169 162 145 136 123 116 99 91 89 84 85 87 84 73 63 54 37 30 34 29 23 32 43 34 29 33 33 20 20 28 30 30
119 81 57 80 84 60 55 122 184 256 98 110 124 137 149 157 168 171 159 141 140 133 130 126 113 107 100 95 87 80 69 62 61 43 32 38 37 26 17 23 30 19 20 21 20 27 31 32 32
89 106 84 109 130 127 135 233 211 206 167 157 157 166 165 162 164 170 163 162 160 154 143 138 129 116 105 96 96 94 88 76 71 54 38 34 39 31 23 19 14 17 14 11 29 29 35 36 43
130 131 149 200 185 143 65 266 212 172 168 176 176 177 175 171 172 181 172 172 171 164 156 146 140 130 122 112 103 101 102 96 92 77 57 37 34 32 36 24 15 7 7 17 34 28 46 46 47
193 203 206 161 162 155 197 253 184 155 168 194 194 187 189 185 184 183 173 170 170 166 166 159 147 148 137 130 128 129 123 97 87 80 84 52 41 39 39 17 6 7 19 15 31 39 43 42 38
190 236 235 169 177 201 219 254 180 171 190 211 209 199 195 191 190 181 172 166 171 171 171 167 160 162 155 148 137 132 119 101 93 76 69 49 47 39 41 358 4 32 35 28 20 34 46 50 34
198 244 250 223 190 271 248 252 223 205 216 224 217 208 201 201 195 178 172 171 169 170 173 174 165 170 160 148 133 121 112 111 107 89 65 50 42 33 32 5 10 40 56 38 34 34 31 45 29
292 263 271 301 190 264 253 259 248 216 217 226 220 213 210 206 181 172 174 169 167 170 174 183 171 171 160 154 154 155 160 151 113 94 67 54 40 29 44 8 12 33 65 59 47 57 54 37 17
261 264 277 293 145 273 271 267 252 224 217 219 218 216 214 199 183 180 179 174 176 177 182 180 179 176 170 166 170 163 160 168 142 117 100 71 62 33 30 29 27 34 58 69 53 67 52 31 16
274 260 282 296 307 240 263 272 232 215 210 216 220 216 210 198 193 189 187 185 182 186 186 187 185 183 175 163 151 141 138 131 125 149 149 121 78 62 71 47 42 40 67 84 67 81 75 63 348
253 2 316 286 282 264 220 287 250 208 209 215 217 214 208 195 193 191 189 190 188 189 180 186 185 183 174 160 166 172 175 177 183 169 158 144 130 106 77 66 59 55 68 72 49 59 75 126 4
83 331 299 272 273 292 233 252 272 194 221 220 211 207 203 193 193 195 191 191 184 176 174 184 185 180 175 168 172 175 176 181 155 144 152 163 161 134 114 100 86 73 81 86 65 49 49 70 105
182 280 269 247 249 265 217 211 271 213 211 210 204 204 201 192 192 194 185 176 175 168 167 178 184 182 180 174 173 175 178 175 163 162 172 174 158 146 132 110 103 97 102 104 99 88 67 57 42
254 75 359 311 247 248 183 215 251 237 167 173 190 198 194 189 187 189 183 177 178 174 175 178 180 187 187 181 177 179 182 181 181 177 178 175 164 164 177 135 125 113 98 93 100 101 103 115 145
223 219 180 229 254 273 211 235 250 219 89 85 135 189 186 192 190 192 189 181 179 178 177 179 183 187 186 182 177 176 177 178 179 175 167 175 179 173 151 140 134 139 135 130 117 121 147 124 165
181 207 296 154 286 283 251 249 269 213 212 217 233 220 202 196 193 192 189 183 180 180 183 183 183 186 188 182 177 176 178 177 171 167 161 158 168 158 141 140 137 129 127 132 126 121 133 129 140
312 208 126 159 231 278 276 251 243 232 234 221 228 236 219 195 194 192 189 187 180 179 181 179 182 189 188 180 179 176 174 173 170 161 167 169 163 151 148 145 150 148 135 133 136 128 130 135 126
184 206 209 204 219 224 279 269 244 189 190 204 229 229 216 200 193 190 189 184 174 170 174 180 182 183 185 179 173 168 170 168 163 164 176 171 157 148 153 152 148 150 146 154 149 141 137 136 125
224 217 185 179 239 225 256 269 292 47 74 201 241 227 207 189 181 178 179 174 170 175 178 182 184 185 186 176 171 171 170 167 166 171 172 162 160 156 157 151 146 155 155 154 156 157 151 153 162